Location: Unspecified
(0.0000°N, 0.0000°E)
Time: 02:14:29
(UTC+00:00)

SR - Pass Details

Date: 13 December 2018
Orbit: 581 x 876 km, 66.7° (Epoch: 16 January)

Event Time Altitude Azimuth Distance (km) Brightness Sun altitude
Rises 00:32:38 0° 187° (S) 3,406 - -65.0°
Reaches altitude 10° 00:35:11 10° 181° (S) 2,493 - -64.8°
Maximum altitude 00:40:43 45° 110° (ESE) 1,176 - -64.2°
Drops below altitude 10° 00:46:16 10° 38° (NE) 2,510 - -63.6°
Sets 00:48:50 0° 32° (NNE) 3,431 - -63.3°
